Reno - Stead, NV

8:19 AM PDT on April 23, 2018 (GMT -0700)
Reno - Stead

Weather History for KRTS - November, 2012

Change the Weather History Date:

Tuesday, November 20, 2012

  Actual Average (KRNO) Record (KRNO)
Temperature  
Mean Temperature 48 °F -  
Max Temperature 55 °F 53 °F 72 °F (1932)
Min Temperature 41 °F 23 °F 7 °F (1977)
Degree Days  
Heating Degree Days 17    
Moisture  
Dew Point 29 °F    
Average Humidity 49    
Maximum Humidity 62    
Minimum Humidity 33    
Precipitation  
Precipitation 0.00 in - - ()
Sea Level Pressure  
Sea Level Pressure 30.07 in    
Wind  
Wind Speed 11 mph ()    
Max Wind Speed 24 mph    
Max Gust Speed 33 mph    
Visibility 10.0 miles    
Events      
Averages and records for this station are not official NWS values.
T = Trace of Precipitation, MM = Missing Value Source: Averaged Metar Reports

Daily Weather History Graph

Daily Weather History Graph

Search for Another Location

Airport or City:

Astronomy

Nov. 20, 2012 Rise Set
Actual Time 6:50 AM PST 4:40 PM PST
Civil Twilight 6:20 AM PST 5:09 PM PST
Nautical Twilight 5:48 AM PST 5:42 PM PST
Astronomical Twilight 5:15 AM PST 6:14 PM PST
Moon 12:27 PM PST (11/20) No Moon Set
Length of Visible Light 10h 48m
Length of Day
9h 49m
First Quarter, 52% of the Moon is Illuminated
Nov 20
First Quarter
Nov 28
Full
Dec 6
Last Quarter
Dec 13
New
Dec 19
First Quarter

Hourly Weather History & Observations

Time (PST) Temp. Windchill Dew Point Humidity Pressure Visibility Wind Dir Wind Speed Gust Speed Precip Events Conditions
12:10 AM 44.6 °F 40.7 °F 28.4 °F 53% 30.16 in 10.0 mi West 6.9 mph - N/A   Overcast
12:30 AM 46.4 °F 45.2 °F 28.4 °F 50% 30.16 in 10.0 mi SSE 3.5 mph - N/A   Mostly Cloudy
12:50 AM 48.2 °F - 26.6 °F 43% 30.15 in 10.0 mi SSE 12.7 mph 18.4 mph N/A   Mostly Cloudy
1:10 AM 48.2 °F - 26.6 °F 43% 30.15 in 10.0 mi SSE 11.5 mph - N/A   Scattered Clouds
1:30 AM 48.2 °F - 26.6 °F 43% 30.15 in 10.0 mi West 6.9 mph - N/A   Scattered Clouds
1:50 AM 44.6 °F 38.8 °F 26.6 °F 49% 30.15 in 10.0 mi West 11.5 mph - N/A   Scattered Clouds
2:10 AM 46.4 °F 40.4 °F 26.6 °F 46% 30.15 in 10.0 mi WNW 13.8 mph - N/A   Clear
2:30 AM 44.6 °F 38.8 °F 26.6 °F 49% 30.15 in 10.0 mi WNW 11.5 mph - N/A   Clear
2:50 AM 44.6 °F 38.4 °F 26.6 °F 49% 30.14 in 10.0 mi WNW 12.7 mph - N/A   Clear
3:10 AM 44.6 °F 39.7 °F 26.6 °F 49% 30.13 in 10.0 mi WNW 9.2 mph - N/A   Clear
3:30 AM 44.6 °F 39.7 °F 26.6 °F 49% 30.12 in 10.0 mi NW 9.2 mph - N/A   Clear
4:10 AM 41.0 °F 35.2 °F 26.6 °F 57% 30.11 in 10.0 mi NW 9.2 mph - N/A   Clear
4:30 AM 41.0 °F 34.3 °F 26.6 °F 57% 30.11 in 10.0 mi NW 11.5 mph - N/A   Clear
4:50 AM 41.0 °F 35.2 °F 24.8 °F 53% 30.10 in 10.0 mi NW 9.2 mph - N/A   Clear
5:10 AM 42.8 °F 36.6 °F 24.8 °F 49% 30.10 in 10.0 mi WNW 11.5 mph - N/A   Clear
5:30 AM 41.0 °F 35.2 °F 24.8 °F 53% 30.11 in 10.0 mi NW 9.2 mph - N/A   Clear
5:50 AM 41.0 °F 35.2 °F 24.8 °F 53% 30.12 in 10.0 mi WNW 9.2 mph - N/A   Clear
6:10 AM 41.0 °F 34.3 °F 24.8 °F 53% 30.12 in 10.0 mi West 11.5 mph - N/A   Clear
6:30 AM 42.8 °F 37.0 °F 24.8 °F 49% 30.11 in 10.0 mi WNW 10.4 mph - N/A   Clear
6:50 AM 41.0 °F 33.9 °F 24.8 °F 53% 30.11 in 10.0 mi WNW 12.7 mph - N/A   Clear
7:10 AM 41.0 °F 33.5 °F 24.8 °F 53% 30.12 in 10.0 mi WNW 13.8 mph - N/A   Clear
7:30 AM 42.8 °F 35.8 °F 24.8 °F 49% 30.13 in 10.0 mi WNW 13.8 mph - N/A   Clear
7:50 AM 44.6 °F 38.8 °F 24.8 °F 46% 30.13 in 10.0 mi WNW 11.5 mph - N/A   Clear
8:10 AM 46.4 °F 41.9 °F 26.6 °F 46% 30.13 in 10.0 mi WNW 9.2 mph - N/A   Partly Cloudy
8:30 AM 48.2 °F - 24.8 °F 40% 30.13 in 10.0 mi WNW 5.8 mph - N/A   Mostly Cloudy
8:50 AM 48.2 °F - 24.8 °F 40% 30.13 in 10.0 mi SW 6.9 mph 17.3 mph N/A   Overcast
9:10 AM 48.2 °F - 26.6 °F 43% 30.12 in 10.0 mi SW 15.0 mph 25.3 mph N/A   Overcast
9:30 AM 50.0 °F - 28.4 °F 43% 30.11 in 10.0 mi WSW 11.5 mph 21.9 mph N/A   Mostly Cloudy
9:50 AM 50.0 °F - 28.4 °F 43% 30.11 in 10.0 mi WSW 11.5 mph 19.6 mph N/A   Mostly Cloudy
10:30 AM 50.0 °F - 30.2 °F 47% 30.10 in 10.0 mi SW 20.7 mph 32.2 mph N/A   Mostly Cloudy
10:50 AM 50.0 °F - 32.0 °F 50% 30.09 in 10.0 mi SW 24.2 mph 29.9 mph N/A   Mostly Cloudy
11:10 AM 50.0 °F - 32.0 °F 50% 30.08 in 10.0 mi SSW 23.0 mph 33.4 mph N/A   Mostly Cloudy
11:30 AM 50.0 °F - 32.0 °F 50% 30.08 in 10.0 mi SW 21.9 mph 29.9 mph N/A   Overcast
11:50 AM 50.0 °F - 32.0 °F 50% 30.07 in 10.0 mi WSW 16.1 mph 27.6 mph N/A   Overcast
12:10 PM 50.0 °F - 32.0 °F 50% 30.06 in 10.0 mi SW 11.5 mph 23.0 mph N/A   Overcast
12:30 PM 51.8 °F - 32.0 °F 47% 30.06 in 10.0 mi West 11.5 mph 19.6 mph N/A   Overcast
12:50 PM 51.8 °F - 32.0 °F 47% 30.05 in 10.0 mi SW 12.7 mph 23.0 mph N/A   Overcast
1:10 PM 51.8 °F - 32.0 °F 47% 30.05 in 10.0 mi SW 16.1 mph 27.6 mph N/A   Overcast
1:30 PM 53.6 °F - 32.0 °F 44% 30.04 in 10.0 mi SSW 15.0 mph 28.8 mph N/A   Mostly Cloudy
1:50 PM 55.4 °F - 28.4 °F 36% 30.03 in 10.0 mi SW 12.7 mph 27.6 mph N/A   Partly Cloudy
2:10 PM 55.4 °F - 30.2 °F 38% 30.03 in 10.0 mi West 16.1 mph 24.2 mph N/A   Clear
2:30 PM 55.4 °F - 28.4 °F 36% 30.02 in 10.0 mi West 12.7 mph - N/A   Clear
2:50 PM 55.4 °F - 28.4 °F 36% 30.03 in 10.0 mi WSW 18.4 mph 23.0 mph N/A   Partly Cloudy
3:10 PM 55.4 °F - 26.6 °F 33% 30.02 in 10.0 mi SW 18.4 mph 23.0 mph N/A   Scattered Clouds
3:30 PM 53.6 °F - 28.4 °F 38% 30.03 in 10.0 mi WSW 17.3 mph 23.0 mph N/A   Scattered Clouds
3:50 PM 51.8 °F - 30.2 °F 44% 30.03 in 10.0 mi WSW 16.1 mph 23.0 mph N/A   Scattered Clouds
4:10 PM 50.0 °F - 32.0 °F 50% 30.03 in 10.0 mi WSW 13.8 mph 21.9 mph N/A   Scattered Clouds
4:30 PM 48.2 °F - 32.0 °F 54% 30.02 in 10.0 mi WSW 10.4 mph - N/A   Mostly Cloudy
4:50 PM 48.2 °F - 32.0 °F 54% 30.02 in 10.0 mi WSW 15.0 mph 19.6 mph N/A   Scattered Clouds
5:10 PM 48.2 °F - 32.0 °F 54% 30.02 in 10.0 mi WSW 12.7 mph 24.2 mph N/A   Partly Cloudy
5:30 PM 48.2 °F - 32.0 °F 54% 30.01 in 10.0 mi WSW 11.5 mph 17.3 mph N/A   Partly Cloudy
5:50 PM 46.4 °F 41.1 °F 32.0 °F 57% 30.00 in 10.0 mi WSW 11.5 mph 18.4 mph N/A   Clear
6:10 PM 46.4 °F 42.9 °F 32.0 °F 57% 30.01 in 10.0 mi West 6.9 mph - N/A   Clear
6:30 PM 48.2 °F - 30.2 °F 50% 30.01 in 10.0 mi SSW 12.7 mph 20.7 mph N/A   Scattered Clouds
6:50 PM 48.2 °F - 30.2 °F 50% 30.02 in 10.0 mi SSW 10.4 mph 17.3 mph N/A   Overcast
7:10 PM 48.2 °F - 28.4 °F 46% 30.02 in 10.0 mi SSW 16.1 mph - N/A   Overcast
7:30 PM 48.2 °F - 30.2 °F 50% 30.02 in 10.0 mi SSW 15.0 mph 24.2 mph N/A   Overcast
7:50 PM 48.2 °F - 30.2 °F 50% 30.02 in 10.0 mi SW 16.1 mph 20.7 mph N/A   Overcast
8:10 PM 48.2 °F - 30.2 °F 50% 30.02 in 10.0 mi SSW 12.7 mph - N/A   Overcast
8:30 PM 46.4 °F 44.3 °F 32.0 °F 57% 30.01 in 10.0 mi WNW 4.6 mph - N/A   Overcast
8:50 PM 48.2 °F - 30.2 °F 50% 30.01 in 10.0 mi South 6.9 mph - N/A   Overcast
9:10 PM 48.2 °F - 32.0 °F 54% 30.01 in 10.0 mi SSW 12.7 mph 18.4 mph N/A   Overcast
9:30 PM 48.2 °F - 28.4 °F 46% 30.00 in 10.0 mi SW 13.8 mph 24.2 mph N/A   Overcast
9:50 PM 48.2 °F - 30.2 °F 50% 30.00 in 10.0 mi SSW 16.1 mph 20.7 mph N/A   Overcast
10:10 PM 48.2 °F - 30.2 °F 50% 30.01 in 10.0 mi SSW 18.4 mph 24.2 mph N/A   Overcast
10:30 PM 48.2 °F - 32.0 °F 54% 30.01 in 10.0 mi SSW 18.4 mph 26.5 mph N/A   Overcast
10:50 PM 46.4 °F 39.5 °F 32.0 °F 57% 30.01 in 10.0 mi SSW 17.3 mph 24.2 mph N/A   Mostly Cloudy
11:10 PM 46.4 °F 39.0 °F 32.0 °F 57% 30.01 in 10.0 mi SSW 19.6 mph 26.5 mph N/A   Overcast
11:30 PM 46.4 °F 40.1 °F 32.0 °F 57% 30.01 in 10.0 mi SSW 15.0 mph 21.9 mph N/A   Overcast
11:50 PM 46.4 °F 39.5 °F 33.8 °F 62% 29.99 in 10.0 mi South 17.3 mph 24.2 mph N/A   Overcast